VA3PPY Weather Reports


time (UTC)temp
F
wind
direction
speed
knots
gust
knots
rain 1hr
in
rain 24hr
in
rain mn
in
humidity
%
barometer
mb
20260505151550 45 303 0.9 5.2 0.00 0.00 0.00 76 1005.4
20260505124552 44 317 0.9 4.3 0.00 0.00 0.00 82 1002.7
20260505123051 44 330 2.6 5.2 0.00 0.00 0.00 82 1002.7
20260505121551 43 332 0.9 4.3 0.00 0.00 0.00 82 1002.7
20260505120108 44 335 0.9 6.1 0.00 0.00 0.00 83 1002.2
20260505114551 43 307 1.7 7.0 0.00 0.00 0.00 84 1001.7
20260505113051 43 271 1.7 7.0 0.00 0.00 0.00 85 1001.8
20260505111551 43 302 2.6 7.0 0.00 0.00 0.00 86 1001.6
20260505101553 42 269 0.0 5.2 0.00 0.00 0.00 88 1000.4
20260505100052 42 307 0.9 7.0 0.00 0.00 0.00 88 1000.0
20260505094551 43 306 1.7 7.0 0.00 0.00 0.00 87 999.8
20260505093054 45 359 0.9 3.5 0.00 0.00 0.00 85 999.4
20260505091551 50 237 0.9 4.3 0.00 0.00 0.00 79 998.6
20260505090052 56 255 1.7 4.3 0.00 0.00 0.00 80 998.1
20260505084552 59 255 1.7 4.3 0.00 0.00 0.00 77 997.9
20260505083052 59 183 0.9 8.7 0.00 0.00 0.00 77 997.4
20260505081552 60 160 1.7 11.3 0.00 0.00 0.00 75 997.1
20260505080053 61 195 3.5 7.8 0.00 0.00 0.00 72 996.9
20260505074558 61 155 2.6 7.0 0.00 0.00 0.00 70 996.6
20260505073104 62 202 2.6 7.8 0.00 0.00 0.00 69 997.0
20260505071558 62 323 0.9 7.8 0.00 0.00 0.00 69 997.3
20260505070054 63 244 1.7 7.0 0.00 0.00 0.00 66 997.1
20260505064552 64 214 6.1 13.9 0.00 0.00 0.00 65 996.3
20260505063052 64 180 6.1 14.8 0.00 0.00 0.00 69 996.7
20260505061556 63 249 5.2 15.6 0.00 0.00 0.00 71 997.3
20260505060052 63 207 4.3 13.0 0.00 0.00 0.00 71 997.4
20260505054618 62 156 2.6 11.3 0.00 0.00 0.00 72 997.7
20260505053103 63 160 5.2 14.8 0.00 0.00 0.00 72 997.9
20260505051552 63 184 6.1 15.6 0.00 0.00 0.00 72 998.0
20260505041559 62 202 3.5 15.6 0.00 0.00 0.00 74 997.6
20260505040056 62 127 6.1 13.9 0.00 0.00 0.00 74 997.6
20260505034553 62 147 3.5 14.8 0.00 0.00 0.00 75 997.8
20260505033053 62 186 3.5 13.0 0.00 0.00 0.00 75 998.0
20260505031607 62 153 4.3 13.0 0.00 0.00 0.00 75 998.1
20260505030054 62 178 4.3 12.2 0.00 0.00 0.00 75 998.2
20260505024554 61 148 5.2 12.2 0.00 0.00 0.00 75 998.2
20260505023111 62 150 2.6 14.8 0.00 0.00 0.00 74 998.2
20260505021554 62 150 2.6 14.8 0.00 0.00 0.00 73 998.4
20260505020054 62 141 5.2 15.6 0.00 0.00 0.00 74 998.3
20260505014602 62 158 6.1 13.9 0.00 0.00 0.00 74 998.1
20260505013107 67 197 9.6 20.9 0.00 0.00 0.00 62 998.4
20260505011554 67 167 1.7 11.3 0.00 0.00 0.00 61 997.3
20260505010053 67 161 1.7 7.0 0.00 0.00 0.00 60 997.3
20260505004557 68 122 1.7 8.7 0.00 0.00 0.00 58 997.2
20260505003054 69 173 2.6 9.6 0.00 0.00 0.00 56 997.4
20260505001556 70 162 0.9 9.6 0.00 0.00 0.00 54 997.3
20260505000113 70 167 5.2 12.2 0.00 0.00 0.00 51 997.2
20260504234554 71 153 4.3 11.3 0.00 0.00 0.00 49 997.2
20260504233057 71 157 7.0 16.5 0.00 0.00 0.00 46 997.3
20260504231553 72 143 7.0 16.5 0.00 0.00 0.00 45 997.6
20260504230106 72 138 5.2 17.4 0.00 0.00 0.00 44 997.7
20260504224554 72 137 5.2 16.5 0.00 0.00 0.00 44 997.9
20260504223101 73 135 6.1 21.7 0.00 0.00 0.00 43 998.2
20260504221602 73 186 5.2 16.5 0.00 0.00 0.00 42 998.3
20260504220059 73 154 7.0 20.9 0.00 0.00 0.00 42 998.3
20260504214557 73 165 4.3 18.2 0.00 0.00 0.00 42 998.4
20260504213054 74 182 10.4 20.0 0.00 0.00 0.00 41 998.5
20260504211558 74 131 7.0 20.0 0.00 0.00 0.00 41 998.5
20260504210056 74 192 6.1 23.5 0.00 0.00 0.00 42 998.3
20260504204601 73 172 5.2 19.1 0.00 0.00 0.00 43 998.5
20260504203104 73 165 4.3 19.1 0.00 0.00 0.00 43 998.8
20260504201556 73 155 5.2 19.1 0.00 0.00 0.00 43 998.7
20260504200055 73 181 4.3 17.4 0.00 0.00 0.00 42 999.0
20260504194555 74 201 4.3 12.2 0.00 0.00 0.00 42 999.1
20260504193056 73 150 5.2 16.5 0.00 0.00 0.00 41 999.2
20260504191606 74 150 4.3 17.4 0.00 0.00 0.00 40 999.5
20260504190116 74 150 6.1 15.6 0.00 0.00 0.00 40 999.5
20260504184555 74 235 5.2 14.8 0.00 0.00 0.00 41 999.6
20260504183104 73 198 3.5 13.9 0.00 0.00 0.00 42 999.7
20260504181559 72 192 2.6 15.6 0.00 0.00 0.00 43 1000.0
20260504174555 73 257 4.3 13.0 0.00 0.00 0.00 41 1000.2
20260504173055 72 236 2.6 13.9 0.00 0.00 0.00 43 1000.4
20260504171555 72 257 1.7 7.8 0.00 0.00 0.00 45 1000.5
20260504160103 67 150 9.6 17.4 0.00 0.00 0.00 52 1001.6